Terminal Aerodrome Forecast
Issued by NWS

Home | Current Version | Previous Version | Text Only | Print | Product List | Glossary On
Versions: 1 2 3 4 5 6 7 8 9 10 11 12 13 14 15 16 17 18 19 20 21 22 23 24 25 26 27 28 29 30 31 32 33 34 35 36 37 38 39 40 41 42
000
FTUS42 KMFL 311743
TAFFXE
TAF
KFXE 311743Z 3118/0118 16009KT P6SM SCT035 BKN050
     FM311900 16012KT P6SM VCTS SCT035CB BKN050
     FM010200 00000KT P6SM FEW030 BKN250
     FM011400 14011KT P6SM SCT035=

USA.gov is the U.S. government's official web portal to all federal, state and local government web resources and services.